Location: Gipe Farm
(40.9466°N, 95.5370°W)
Time: 15:21:29
(UTC-05:00)

Cosmos 1842 - Visible Passes

Search period start: 18 August 2017 00:00
Search period end: 28 August 2017 00:00
Orbit: 523 x 541 km, 82.5° (Epoch: 17 August)

Date Brightness Start Highest point End Pass type
(mag) Time Alt. Az. Time Alt. Az. Time Alt. Az.
18 Aug 5.9 00:00:27 10° N 00:01:36 19° N 00:01:36 19° N visible
18 Aug 5.8 23:50:32 10° N 23:51:46 19° N 23:51:46 19° N visible
19 Aug 5.7 23:40:37 10° N 23:41:56 20° N 23:41:56 20° N visible
20 Aug 5.6 23:30:42 10° N 23:32:08 21° N 23:32:08 21° N visible
21 Aug 5.5 23:20:47 10° N 23:22:20 23° N 23:22:20 23° N visible
22 Aug 5.3 23:10:53 10° N 23:12:33 24° N 23:12:33 24° N visible
23 Aug 5.2 23:00:58 10° N 23:02:47 26° N 23:02:47 26° N visible
24 Aug 5.0 22:51:04 10° N 22:53:01 27° N 22:53:01 27° N visible
25 Aug 4.9 22:41:09 10° N 22:43:17 29° N 22:43:17 29° N visible
26 Aug 4.7 22:31:15 10° N 22:33:33 32° NNE 22:33:33 32° NNE visible
27 Aug 4.5 22:21:21 10° N 22:23:50 34° NNE 22:23:50 34° NNE visible
